Tracking 29932 objects as of 3-Dec-2024
HD Live streaming from Space Station
objects crossing your sky now

IRIDIUM 33 DEB

Track IRIDIUM 33 DEB now!
10-day predictions


NORAD ID: 35616
Int'l Code: 1997-051QN
Perigee: 660.0 km
Apogee: 680.3 km
Inclination: 86.4 °
Period: 98.0 minutes
Semi major axis: 7041 km
RCS: 0.0074 m2 (small)
Launch date: September 14, 1997
Source: United States (US)
Launch site: TYURATAM MISSILE AND SPACE COMPLEX (TTMTR)

Note: This is SATELLITE DEBRIS
Your satellite tracking list
Your tracking list is empty




NASA's NSSDC Master Catalog

Two Line Element Set (TLE):
1 35616U 97051QN  24334.95575656  .00023736  00000-0  39949-2 0  9994
2 35616  86.3574 156.4937 0014447  62.9215 297.3472 14.69389195822232
Source of the keplerian elements: AFSPC